Location: ???? ????????
(44.2382°N, 135.4003°E)
Time: 00:25:47
(UTC+00:00)

SL-16 R/B - Pass Details

Date: 19 May 2025
Orbit: 841 x 844 km, 71.0° (Epoch: 16 June)

Event Time Altitude Azimuth Distance (km) Brightness Sun altitude
Rises 15:57:56 0° 318° (NW) 3,411 5.8 -24.2°
Reaches altitude 10° 16:01:16 10° 299° (WNW) 2,470 4.7 -24.1°
Enters shadow 16:03:59 16° 270° (W) 2,065 4.0 -23.9°
